Location: Gleizolles
(44.4833°N, 6.7667°E)
Time: 11:37:28
(UTC+00:00)

Transit 4A - Pass Details

Date: 03 July 2024
Orbit: 869 x 973 km, 66.8° (Epoch: 22 July)

Event Time Altitude Azimuth Distance (km) Brightness Sun altitude
Rises 20:15:09 0° 235° (SW) 3,454 11.0 -8.4°
Reaches altitude 10° 20:17:48 10° 243° (WSW) 2,514 10.4 -8.7°
Maximum altitude 20:23:12 39° 312° (NW) 1,285 9.4 -9.4°
Drops below altitude 10° 20:28:38 10° 20° (NNE) 2,534 10.5 -10.1°
Sets 20:31:19 0° 29° (NNE) 3,485 11.2 -10.4°
